Benton Harbor, MI

5:53 AM EDT on July 22, 2017 (GMT -0400)
Southwest Michigan Regional

Weather History for KBEH - April, 2013

Change the Weather History Date:

Friday, April 19, 2013

  Actual Average Record
Temperature  
Mean Temperature 40 °F -  
Max Temperature 45 °F 60 °F 84 °F (1985)
Min Temperature 34 °F 39 °F 18 °F (1988)
Degree Days  
Heating Degree Days 25    
Moisture  
Dew Point 32 °F    
Average Humidity 79    
Maximum Humidity 93    
Minimum Humidity 67    
Precipitation  
Precipitation 0.05 in - - ()
Sea Level Pressure  
Sea Level Pressure 29.64 in    
Wind  
Wind Speed 21 mph (WSW)    
Max Wind Speed 28 mph    
Max Gust Speed 40 mph    
Visibility 9 miles    
Events Rain , Snow    
Averages and records for this station are not official NWS values.
T = Trace of Precipitation, MM = Missing Value Source: NWS Daily Summary

Daily Weather History Graph

Daily Weather History Graph

Search for Another Location

Airport or City:

Trip Planner

Search our weather history database for the weather conditions in past years. The results will help you decide how hot, cold, wet, or windy it might be!

Date:

Astronomy

Apr. 19, 2013 Rise Set
Actual Time 6:58 AM EDT 8:31 PM EDT
Civil Twilight 6:29 AM EDT 9:01 PM EDT
Nautical Twilight 5:53 AM EDT 9:36 PM EDT
Astronomical Twilight 5:15 AM EDT 10:14 PM EDT
Moon 2:09 PM EDT (4/19) 3:20 AM EDT (4/19)
Length of Visible Light 14h 32m
Length of Day
13h 33m
First Quarter, 61% of the Moon is Illuminated
Apr 19
First Quarter
Apr 25
Full
May 2
Last Quarter
May 9
New
May 18
First Quarter

Hourly Weather History & Observations

Time (EDT) Temp. Windchill Dew Point Humidity Pressure Visibility Wind Dir Wind Speed Gust Speed Precip Events Conditions
12:06 AM 46.4 °F 39.0 °F 44.6 °F 93% 29.53 in 10.0 mi WSW 19.6 mph 34.5 mph 0.00 in   Overcast
12:27 AM 44.6 °F 36.1 °F 42.8 °F 93% 29.52 in 10.0 mi WSW 21.9 mph 34.5 mph 0.01 in   Overcast
12:53 AM 45.0 °F 37.9 °F 42.1 °F 90% 29.53 in 8.0 mi WSW 16.1 mph - 0.01 in Rain Light Rain
1:29 AM 44.6 °F 36.9 °F 42.8 °F 93% 29.52 in 10.0 mi WSW 18.4 mph 24.2 mph 0.00 in Rain Light Rain
1:53 AM 43.0 °F 35.4 °F 39.9 °F 89% 29.52 in 7.0 mi WSW 16.1 mph 20.7 mph 0.02 in Rain Light Rain
2:53 AM 42.1 °F 32.6 °F 36.0 °F 79% 29.51 in 10.0 mi WSW 23.0 mph 27.6 mph 0.01 in   Overcast
3:53 AM 39.9 °F 30.0 °F 35.1 °F 83% 29.50 in 10.0 mi WSW 21.9 mph 28.8 mph N/A   Overcast
4:53 AM 39.0 °F 29.0 °F 32.0 °F 76% 29.50 in 10.0 mi WSW 20.7 mph 31.1 mph N/A   Overcast
5:53 AM 37.9 °F 26.8 °F 32.0 °F 79% 29.51 in 10.0 mi WSW 24.2 mph 29.9 mph N/A   Overcast
6:36 AM 37.4 °F 26.1 °F 28.4 °F 70% 29.50 in 10.0 mi WSW 24.2 mph 32.2 mph N/A   Overcast
6:53 AM 37.9 °F 28.2 °F 30.0 °F 73% 29.51 in 10.0 mi WSW 18.4 mph 29.9 mph N/A   Overcast
7:53 AM 37.9 °F 27.1 °F 28.9 °F 70% 29.52 in 10.0 mi WSW 23.0 mph 33.4 mph N/A   Overcast
8:53 AM 37.9 °F 26.8 °F 28.9 °F 70% 29.53 in 10.0 mi WSW 24.2 mph 34.5 mph N/A   Overcast
9:38 AM 37.4 °F 25.9 °F 30.2 °F 75% 29.52 in 10.0 mi WSW 25.3 mph 35.7 mph N/A   Overcast
9:53 AM 37.9 °F 27.9 °F 30.0 °F 73% 29.53 in 10.0 mi WSW 19.6 mph 38.0 mph N/A   Overcast
10:01 AM 37.4 °F 26.1 °F 30.2 °F 75% 29.53 in 10.0 mi WSW 24.2 mph 32.2 mph N/A   Overcast
10:53 AM 37.9 °F 26.1 °F 28.9 °F 70% 29.55 in 10.0 mi SW 27.6 mph 40.3 mph N/A   Overcast
11:53 AM 39.0 °F 28.5 °F 30.0 °F 70% 29.56 in 10.0 mi WSW 23.0 mph 36.8 mph N/A   Overcast
12:53 PM 39.0 °F 27.8 °F 28.9 °F 67% 29.58 in 10.0 mi WSW 26.5 mph 36.8 mph N/A   Overcast
1:53 PM 39.9 °F 29.2 °F 30.9 °F 70% 29.59 in 10.0 mi WSW 25.3 mph 38.0 mph N/A   Overcast
2:53 PM 39.0 °F 28.0 °F 28.9 °F 67% 29.62 in 10.0 mi WSW 25.3 mph 38.0 mph N/A   Overcast
3:53 PM 39.9 °F 29.7 °F 30.0 °F 68% 29.65 in 10.0 mi SW 23.0 mph 38.0 mph N/A   Overcast
4:53 PM 39.0 °F 28.3 °F 30.0 °F 70% 29.67 in 10.0 mi WSW 24.2 mph 36.8 mph N/A   Overcast
5:53 PM 37.9 °F 27.9 °F 30.9 °F 76% 29.70 in 10.0 mi WSW 19.6 mph 31.1 mph N/A   Overcast
6:53 PM 39.0 °F 28.5 °F 30.0 °F 70% 29.72 in 10.0 mi WSW 23.0 mph 32.2 mph N/A   Overcast
7:53 PM 37.0 °F 26.7 °F 30.9 °F 79% 29.75 in 4.0 mi WSW 19.6 mph 29.9 mph 0.00 in Snow Light Snow
8:02 PM 37.4 °F 26.6 °F 30.2 °F 75% 29.74 in 8.0 mi WSW 21.9 mph 29.9 mph 0.00 in   Overcast
8:17 PM 37.4 °F 26.4 °F 30.2 °F 75% 29.75 in 10.0 mi WSW 23.0 mph 31.1 mph 0.00 in   Overcast
8:48 PM 35.6 °F 24.5 °F 32.0 °F 87% 29.77 in 7.0 mi West 20.7 mph 32.2 mph 0.01 in Snow Light Snow
8:53 PM 36.0 °F 25.6 °F 32.0 °F 86% 29.79 in 7.0 mi West 18.4 mph 27.6 mph 0.01 in Snow Light Snow
9:25 PM 37.4 °F 26.4 °F 32.0 °F 81% 29.78 in 9.0 mi West 23.0 mph 28.8 mph 0.00 in   Overcast
9:49 PM 35.6 °F 25.5 °F 33.8 °F 93% 29.79 in 10.0 mi WSW 17.3 mph 25.3 mph 0.00 in   Overcast
9:53 PM 36.0 °F 25.0 °F 33.1 °F 89% 29.81 in 10.0 mi WSW 20.7 mph 28.8 mph 0.00 in   Overcast
10:11 PM 37.4 °F 25.9 °F 33.8 °F 87% 29.81 in 10.0 mi WSW 25.3 mph 32.2 mph N/A   Overcast
10:20 PM 35.6 °F 24.8 °F 32.0 °F 87% 29.81 in 9.0 mi West 19.6 mph 33.4 mph N/A   Overcast
10:33 PM 35.6 °F 25.9 °F 32.0 °F 87% 29.82 in 8.0 mi West 16.1 mph 28.8 mph 0.00 in Snow Light Snow
10:53 PM 34.0 °F 24.6 °F 28.9 °F 82% 29.84 in 7.0 mi West 13.8 mph 25.3 mph 0.00 in Snow Light Snow
11:53 PM 37.0 °F 27.4 °F 30.9 °F 79% 29.85 in 10.0 mi West 17.3 mph 25.3 mph 0.00 in   Overcast